Location: Chacón
(10.5789°N, 66.9317°W)
Time: 03:59:18
(UTC+00:00)

Cosmos 962 Rocket - Pass Details

Date: 18 October 2025
Orbit: 950 x 998 km, 82.9° (Epoch: 17 November)

Event Time Altitude Azimuth Distance (km) Brightness Sun altitude
Rises 09:45:57 0° 327° (NNW) 3,683 7.1 -8.3°
Reaches altitude 10° 09:49:27 10° 308° (NW) 2,726 6.3 -7.5°
Maximum altitude 09:53:11 17° 270° (W) 2,267 5.8 -6.6°
Drops below altitude 10° 09:56:55 10° 233° (SW) 2,706 6.4 -5.7°
Sets 10:00:25 0° 213° (SSW) 3,643 7.3 -4.8°
